Weather History for Osceola Municipal, IA

Change the Weather History Date:

Sunday, March 23, 2014

  Actual Average (KLWD) Record (KLWD)
Temperature  
Mean Temperature 23 °F 43 °F  
Max Temperature 33 °F 54 °F 75 °F (1967)
Min Temperature 14 °F 33 °F 8 °F (1965)
Degree Days  
Heating Degree Days 42 22  
Month to date heating degree days 613  
Since 1 July heating degree days 5330  
Cooling Degree Days 0 0  
Month to date cooling degree days 0  
Year to date cooling degree days 0  
Moisture  
Dew Point 8 °F    
Average Humidity 52    
Maximum Humidity 77    
Minimum Humidity 27    
Precipitation  
Precipitation 0.00 in 0.09 in 0.66 in (2009)
Month to date precipitation 1.54  
Sea Level Pressure  
Sea Level Pressure 30.44 in    
Wind  
Wind Speed 7 mph (North)    
Max Wind Speed 12 mph    
Max Gust Speed 16 mph    
Visibility 10 miles    
Events      
T = Trace of Precipitation, MM = Missing Value Source: NWS Daily Summary

Daily Weather History Graph

Daily Weather History Graph

Search for Another Location

Airport:

Trip Planner

Search our weather history database for the weather conditions in past years. The results will help you decide how hot, cold, wet, or windy it might be!

Date:

Astronomy

Mar. 23, 2014 Rise Set
Actual Time 7:13 AM CDT 7:30 PM CDT
Civil Twilight 6:45 AM CDT 7:57 PM CDT
Nautical Twilight 6:13 AM CDT 8:30 PM CDT
Astronomical Twilight 5:40 AM CDT 9:03 PM CDT
Moon 1:50 AM CDT (3/23) 11:52 AM CDT (3/23)
Length of Visible Light 13h 12m
Length of Day
12h 17m
Waning Gibbous, 54% of the Moon is Illuminated
Mar 23
Waning Gibbous
Mar 23
Last Quarter
Mar 30
New
Apr 7
First Quarter
Apr 15
Full

Hourly Weather History & Observations

Time (CDT) Temp. Windchill Dew Point Humidity Pressure Visibility Wind Dir Wind Speed Gust Speed Precip Events Conditions
12:15 AM 23.7 °F 13.3 °F 13.1 °F 64% 30.46 in 10.0 mi North 10.4 mph - N/A   Mostly Cloudy
12:35 AM 23.4 °F 12.8 °F 12.7 °F 64% 30.47 in 10.0 mi North 10.4 mph - N/A   Overcast
12:55 AM 23.4 °F 12.8 °F 12.9 °F 64% 30.47 in 10.0 mi NNW 10.4 mph - N/A   Overcast
1:15 AM 23.0 °F 12.4 °F 12.9 °F 65% 30.47 in 10.0 mi North 10.4 mph - N/A   Overcast
1:35 AM 23.0 °F 13.9 °F 13.1 °F 66% 30.48 in 10.0 mi North 8.1 mph - N/A   Mostly Cloudy
1:55 AM 22.1 °F 12.8 °F 13.1 °F 68% 30.48 in 10.0 mi North 8.1 mph - N/A   Scattered Clouds
2:15 AM 20.5 °F 11.7 °F 12.2 °F 70% 30.48 in 10.0 mi NNW 6.9 mph - N/A   Clear
2:35 AM 20.8 °F 10.4 °F 12.0 °F 69% 30.49 in 10.0 mi North 9.2 mph - N/A   Clear
2:55 AM 20.5 °F 11.7 °F 11.7 °F 69% 30.49 in 10.0 mi NNW 6.9 mph - N/A   Clear
3:15 AM 19.8 °F 10.8 °F 11.8 °F 71% 30.49 in 10.0 mi NNW 6.9 mph - N/A   Scattered Clouds
3:35 AM 18.1 °F 10.0 °F 11.3 °F 75% 30.49 in 10.0 mi NNW 5.8 mph - N/A   Scattered Clouds
3:55 AM 17.1 °F 8.7 °F 10.9 °F 77% 30.49 in 10.0 mi NNW 5.8 mph - N/A   Clear
4:15 AM 17.2 °F 7.8 °F 10.9 °F 76% 30.49 in 10.0 mi NW 6.9 mph - N/A   Clear
4:35 AM 17.4 °F 7.1 °F 10.0 °F 73% 30.49 in 10.0 mi NNW 8.1 mph - N/A   Clear
4:55 AM 16.9 °F 7.4 °F 9.3 °F 72% 30.49 in 10.0 mi NNW 6.9 mph - N/A   Clear
5:15 AM 16.7 °F 7.2 °F 9.3 °F 73% 30.49 in 10.0 mi NNW 6.9 mph - N/A   Clear
5:35 AM 16.2 °F 6.5 °F 9.0 °F 73% 30.49 in 10.0 mi NNW 6.9 mph - N/A   Clear
5:55 AM 14.5 °F 7.1 °F 8.2 °F 76% 30.50 in 10.0 mi NW 4.6 mph - N/A   Clear
6:15 AM 14.9 °F 6.1 °F 8.4 °F 76% 30.50 in 10.0 mi NW 5.8 mph - N/A   Clear
6:35 AM 14.7 °F 5.9 °F 8.2 °F 75% 30.50 in 10.0 mi NNW 5.8 mph - N/A   Clear
6:55 AM 14.5 °F 5.7 °F 7.9 °F 75% 30.50 in 10.0 mi NNW 5.8 mph - N/A   Clear
7:15 AM 14.0 °F 3.9 °F 7.7 °F 76% 30.50 in 10.0 mi NW 6.9 mph - N/A   Clear
7:35 AM 14.5 °F 5.7 °F 8.4 °F 77% 30.50 in 10.0 mi NW 5.8 mph - N/A   Clear
7:55 AM 15.6 °F 5.9 °F 9.3 °F 76% 30.50 in 10.0 mi NNW 6.9 mph - N/A   Clear
8:15 AM 17.1 °F 8.7 °F 10.2 °F 75% 30.51 in 10.0 mi NW 5.8 mph - N/A   Clear
8:35 AM 18.3 °F 8.2 °F 9.1 °F 67% 30.51 in 10.0 mi NNW 8.1 mph - N/A   Clear
8:55 AM 19.4 °F 7.9 °F 9.1 °F 64% 30.51 in 10.0 mi NNW 10.4 mph - N/A   Clear
9:15 AM 19.9 °F 11.1 °F 7.7 °F 59% 30.51 in 10.0 mi North 6.9 mph - N/A   Clear
9:35 AM 20.7 °F 11.9 °F 6.6 °F 55% 30.51 in 10.0 mi North 6.9 mph - N/A   Clear
9:55 AM 21.7 °F 12.3 °F 6.1 °F 51% 30.51 in 10.0 mi North 8.1 mph - N/A   Clear
10:15 AM 22.5 °F 16.3 °F 5.7 °F 49% 30.51 in 10.0 mi North 4.6 mph - N/A   Clear
10:35 AM 23.4 °F 12.2 °F 5.2 °F 46% 30.51 in 10.0 mi NNW 11.5 mph - N/A   Clear
10:55 AM 23.9 °F 14.2 °F 3.9 °F 42% 30.51 in 10.0 mi North 9.2 mph - N/A   Clear
11:15 AM 25.2 °F 19.5 °F 4.3 °F 41% 30.51 in 10.0 mi NNW 4.6 mph - N/A   Clear
11:35 AM 25.5 °F 18.7 °F 4.3 °F 40% 30.50 in 10.0 mi NNW 5.8 mph - N/A   Clear
11:55 AM 26.2 °F 19.6 °F 3.6 °F 38% 30.50 in 10.0 mi NNW 5.8 mph - N/A   Clear
12:15 PM 26.4 °F 18.0 °F 3.0 °F 37% 30.49 in 10.0 mi North 8.1 mph - N/A   Clear
12:35 PM 28.0 °F 20.8 °F 3.2 °F 35% 30.48 in 10.0 mi NNW 6.9 mph 16.1 mph N/A   Clear
12:55 PM 28.0 °F 20.0 °F 2.3 °F 33% 30.48 in 10.0 mi NW 8.1 mph - N/A   Clear
1:15 PM 29.8 °F 23.0 °F 3.7 °F 33% 30.48 in 10.0 mi NNW 6.9 mph 16.1 mph N/A   Clear
1:35 PM 30.4 °F 21.5 °F 3.2 °F 32% 30.47 in 10.0 mi NW 10.4 mph - N/A   Clear
1:55 PM 32.0 °F 26.4 °F 3.7 °F 30% 30.46 in 10.0 mi North 5.8 mph - N/A   Clear
2:15 PM 30.9 °F 25.2 °F 2.5 °F 30% 30.45 in 10.0 mi NE 5.8 mph 16.1 mph N/A   Clear
2:35 PM 31.5 °F 24.9 °F 2.5 °F 29% 30.43 in 10.0 mi WNW 6.9 mph - N/A   Clear
2:55 PM 31.8 °F 27.3 °F 2.1 °F 28% 30.42 in 10.0 mi NW 4.6 mph - N/A   Clear
3:15 PM 32.2 °F 25.0 °F 1.4 °F 27% 30.42 in 10.0 mi West 8.1 mph - N/A   Clear
3:35 PM 32.2 °F 26.7 °F 2.5 °F 28% 30.41 in 10.0 mi NW 5.8 mph 9.2 mph N/A   Clear
3:55 PM 32.2 °F - 3.2 °F 29% 30.39 in 10.0 mi Calm Calm - N/A   Clear
4:15 PM 32.5 °F 25.5 °F 3.6 °F 29% 30.38 in 10.0 mi North 8.1 mph - N/A   Clear
4:35 PM 32.5 °F - 3.4 °F 29% 30.38 in 10.0 mi Calm Calm - N/A   Clear
4:55 PM 32.9 °F 27.5 °F 4.1 °F 30% 30.37 in 10.0 mi NE 5.8 mph - N/A   Clear
5:15 PM 32.9 °F 29.8 °F 4.3 °F 30% 30.37 in 10.0 mi North 3.5 mph - N/A   Clear
5:35 PM 32.9 °F 27.5 °F 4.3 °F 30% 30.35 in 10.0 mi NNE 5.8 mph - N/A   Clear
5:55 PM 32.0 °F 27.5 °F 3.9 °F 31% 30.35 in 10.0 mi NE 4.6 mph - N/A   Clear
6:15 PM 32.0 °F 25.6 °F 4.8 °F 32% 30.34 in 10.0 mi NNE 6.9 mph - N/A   Clear
6:35 PM 31.8 °F 28.5 °F 3.9 °F 31% 30.34 in 10.0 mi NE 3.5 mph - N/A   Clear
6:55 PM 31.1 °F 25.4 °F 5.5 °F 34% 30.34 in 10.0 mi North 5.8 mph - N/A   Clear
7:15 PM 29.1 °F 24.1 °F 7.5 °F 40% 30.34 in 10.0 mi NNE 4.6 mph - N/A   Clear
7:35 PM 26.6 °F 21.2 °F 7.3 °F 44% 30.33 in 10.0 mi NNE 4.6 mph - N/A   Clear
7:55 PM 25.5 °F 18.7 °F 7.2 °F 46% 30.34 in 10.0 mi NNE 5.8 mph - N/A   Clear
8:15 PM 24.4 °F 18.6 °F 7.5 °F 49% 30.34 in 10.0 mi North 4.6 mph - N/A   Clear
8:35 PM 25.9 °F 21.7 °F 6.1 °F 43% 30.35 in 10.0 mi North 3.5 mph - N/A   Clear
8:55 PM 23.7 °F 16.6 °F 8.4 °F 52% 30.34 in 10.0 mi NE 5.8 mph - N/A   Clear
9:15 PM 25.2 °F 18.3 °F 10.4 °F 54% 30.35 in 10.0 mi NE 5.8 mph - N/A   Mostly Cloudy
9:35 PM 25.7 °F 19.0 °F 9.0 °F 49% 30.35 in 10.0 mi ENE 5.8 mph - N/A   Mostly Cloudy
9:55 PM 25.7 °F 20.1 °F 9.9 °F 51% 30.35 in 10.0 mi ENE 4.6 mph - N/A   Overcast
10:15 PM 25.7 °F 21.5 °F 10.8 °F 53% 30.35 in 10.0 mi East 3.5 mph - N/A   Overcast
10:35 PM 26.1 °F 19.4 °F 10.9 °F 53% 30.35 in 10.0 mi ENE 5.8 mph - N/A   Overcast
10:55 PM 26.2 °F 19.6 °F 11.3 °F 53% 30.36 in 10.0 mi ENE 5.8 mph - N/A   Overcast
11:15 PM 26.2 °F 19.6 °F 10.9 °F 52% 30.35 in 10.0 mi East 5.8 mph - N/A   Overcast
11:35 PM 26.6 °F 20.0 °F 11.1 °F 52% 30.36 in 10.0 mi East 5.8 mph - N/A   Overcast
11:55 PM 26.6 °F 20.0 °F 11.3 °F 53% 30.37 in 10.0 mi East 5.8 mph - N/A   Overcast